星链-3996 (STARLINK-3996 )

导读 | 豆包AI

STARLINK-3996是美国太空探索技术公司星链星座的一员,于2022年5月14日发射入轨。星链星座计划构建全球卫星互联网,为偏远地区、海上等场景提供宽带网络服务,这颗卫星补充了星链低轨星座的组网规模,延续了星链系统的部署进程。

基本信息
目录编号:
52617
目录名称:
STARLINK-3996
国际标识:
2022-052V
轨道中心:
EARTH
卫星名称:
星链-3996
卫星全名:
星链-3996 (STARLINK-3996 )
卫星状态:
在轨 (已飞行1401 天)
发射日期:
2022-05-14 UTC
国别 :
美国 (US)
星等 :
--
轨道信息
数据来源 国际轨道数据 AOE轨道数据
星历时间 2026-03-14T20:20:38+0800
14小时前
查看轨道信息
2026-03-14T02:00:00+0800
1天前
查看轨道信息
半长轴 6917.885km 6917.867km
偏心率 0.0001207 0.0000915
轨道倾角 53.216° 53.213°
近地点辐角 86.741° 66.566°
升交点赤经 247.459° 250.893°
平近点角 273.372° 99.602°
近地点 538.913km 539.097km
远地点 540.583km 540.363km
周期 95.438分钟 95.437分钟
每日圈数 15.088386 15.088445
详细信息
固有亮度:
5
最大亮度:
2.5
卫星平台:
Starlink v1.5
覆盖范围:
全球
运营商:
太空探索技术公司
运营商所在国:
美国
制造商(研发单位):
太空探索技术公司
制造商所在国:
美国
使用方式:
暂无
卫星简介
星链(Starlink)计划是由太空探索技术公司(SpaceX)提出的一个巨型低轨卫星互联网星座项目,计划在2019年至2024年间在太空搭建由约1.2万颗卫星组成的“星链”网络,其中1584颗将部署在地球上空550千米处的近地轨道,并从2020年开始工作。该卫星仍在工作。
2D轨道图
3D轨道图
轨道高度分析图
轨道倾角分析图
轨道综合分析图
查看轨道综合分析图